Weather History for Jefferson City, MO

Change the Weather History Date:

Monday, November 26, 2012

  Actual Average Record
Temperature  
Mean Temperature 36 °F -  
Max Temperature 45 °F 53 °F 77 °F (1990)
Min Temperature 27 °F 32 °F 8 °F (1977)
Degree Days  
Heating Degree Days 28    
Moisture  
Dew Point 24 °F    
Average Humidity 60    
Maximum Humidity 75    
Minimum Humidity 44    
Precipitation  
Precipitation 0.00 in - - ()
Sea Level Pressure  
Sea Level Pressure 30.22 in    
Wind  
Wind Speed 6 mph (NNE)    
Max Wind Speed 16 mph    
Max Gust Speed 26 mph    
Visibility 10 miles    
Events      
Averages and records for this station are not official NWS values.
T = Trace of Precipitation, MM = Missing Value Source: NWS Daily Summary

Daily Weather History Graph

Daily Weather History Graph

Search for Another Location

Airport:

Trip Planner

Search our weather history database for the weather conditions in past years. The results will help you decide how hot, cold, wet, or windy it might be!

Date:

Astronomy

Nov. 26, 2012 Rise Set
Actual Time 7:02 AM CST 4:49 PM CST
Civil Twilight 6:33 AM CST 5:18 PM CST
Nautical Twilight 6:01 AM CST 5:50 PM CST
Astronomical Twilight 5:29 AM CST 6:22 PM CST
Moon 3:41 PM CST (11/26) 5:14 AM CST (11/26)
Length of Visible Light 10h 44m
Length of Day
9h 46m
Waxing Gibbous, 97% of the Moon is Illuminated
Nov 26
Waxing Gibbous
Nov 28
Full
Dec 6
Last Quarter
Dec 13
New
Dec 19
First Quarter

Hourly Weather History & Observations

Time (CST) Temp. Windchill Dew Point Humidity Pressure Visibility Wind Dir Wind Speed Gust Speed Precip Events Conditions
12:53 AM 39.9 °F - 27.0 °F 60% 30.02 in 10.0 mi Calm Calm - N/A   Clear
1:53 AM 37.9 °F - 26.1 °F 62% 30.04 in 10.0 mi Calm Calm - N/A   Clear
2:53 AM 37.9 °F 35.5 °F 26.1 °F 62% 30.06 in 10.0 mi Variable 3.5 mph - N/A   Clear
3:53 AM 37.0 °F 34.5 °F 26.1 °F 65% 30.06 in 10.0 mi Variable 3.5 mph - N/A   Clear
4:53 AM 36.0 °F 33.3 °F 26.1 °F 67% 30.08 in 10.0 mi Variable 3.5 mph - N/A   Clear
5:53 AM 35.1 °F 31.0 °F 26.1 °F 70% 30.11 in 10.0 mi NE 4.6 mph - N/A   Clear
6:53 AM 35.1 °F 26.4 °F 25.0 °F 67% 30.12 in 10.0 mi NE 12.7 mph - N/A   Clear
7:53 AM 36.0 °F 30.3 °F 24.1 °F 62% 30.15 in 10.0 mi NE 6.9 mph - N/A   Clear
8:53 AM 36.0 °F 28.0 °F 24.1 °F 62% 30.17 in 10.0 mi NE 11.5 mph - N/A   Clear
9:53 AM 37.0 °F 29.8 °F 25.0 °F 62% 30.20 in 10.0 mi NE 10.4 mph - N/A   Overcast
10:53 AM 41.0 °F 34.7 °F 24.1 °F 51% 30.21 in 10.0 mi ENE 10.4 mph - N/A   Overcast
11:53 AM 44.1 °F 40.1 °F 25.0 °F 47% 30.21 in 10.0 mi Variable 6.9 mph - N/A   Overcast
12:53 PM 45.0 °F 38.9 °F 24.1 °F 44% 30.21 in 10.0 mi North 12.7 mph - N/A   Overcast
1:53 PM 43.0 °F 36.8 °F 24.1 °F 47% 30.23 in 10.0 mi North 11.5 mph - N/A   Overcast
2:53 PM 43.0 °F 35.7 °F 25.0 °F 49% 30.23 in 10.0 mi North 15.0 mph 23.0 mph N/A   Overcast
3:53 PM 42.1 °F 34.2 °F 24.1 °F 49% 30.26 in 10.0 mi North 16.1 mph 26.5 mph N/A   Overcast
4:53 PM 39.0 °F 32.8 °F 23.0 °F 53% 30.30 in 10.0 mi North 9.2 mph 19.6 mph N/A   Overcast
5:53 PM 37.0 °F 30.4 °F 25.0 °F 62% 30.32 in 10.0 mi North 9.2 mph - N/A   Overcast
6:53 PM 36.0 °F 29.6 °F 21.9 °F 57% 30.35 in 10.0 mi NNE 8.1 mph 16.1 mph N/A   Mostly Cloudy
7:53 PM 33.1 °F 26.9 °F 21.0 °F 61% 30.37 in 10.0 mi North 6.9 mph - N/A   Partly Cloudy
8:53 PM 32.0 °F 24.8 °F 21.0 °F 64% 30.40 in 10.0 mi North 8.1 mph - N/A   Mostly Cloudy
9:53 PM 30.0 °F - 21.0 °F 69% 30.40 in 10.0 mi Calm Calm - N/A   Clear
10:53 PM 28.9 °F - 21.0 °F 72% 30.42 in 10.0 mi Calm Calm - N/A   Clear
11:53 PM 27.0 °F 23.0 °F 19.9 °F 75% 30.43 in 10.0 mi NW 3.5 mph - N/A   Clear